Terminal Aerodrome Forecast
Issued by NWS St Louis, MO

Home | Current Version | Previous Version | Text Only | Print | Product List | Glossary On
Versions: 1 2 3 4 5 6 7 8 9 10 11 12 13 14 15 16 17 18 19 20 21 22 23 24
496
FTUS43 KLSX 152053 AAA
TAFSTL
TAF AMD
KSTL 152053Z 1521/1624 32014G24KT P6SM SCT040
      TEMPO 1521/1522 BKN040
     FM160000 32008KT P6SM FEW050
     FM160600 VRB04KT P6SM SKC
     FM161900 31005KT P6SM SKC=

USA.gov is the U.S. government's official web portal to all federal, state and local government web resources and services.